Location: Newark
(35.8833°N, 14.5000°E)
Time: 09:19:37
(UTC+00:00)

BEESAT - Pass Details

Date: 16 November 2019
Orbit: 700 x 709 km, 98.6° (Epoch: 11 December)

Event Time Altitude Azimuth Distance (km) Brightness Sun altitude
Rises 04:46:45 0° 204° (SSW) 3,077 ? -10.8°
Reaches altitude 10° 04:49:41 10° 223° (SW) 2,163 ? -10.2°
Maximum altitude 04:52:51 18° 266° (W) 1,703 ? -9.6°
Drops below altitude 10° 04:56:02 10° 308° (NW) 2,170 ? -9.0°
Enters shadow 04:56:34 - 313° (NW) 2,317 ? -8.9°
